Vorticity
9 9 10 10 9 8 8 6 5 5 6 7 9 10 9 13 12 12 10 7 11 14 11 9 8 14 14 11 5 8 8 9 10 10 8 6 7 7 10 3 15 -1 11 12 4 -1 9 2 -6 23 30 -15 8 14
5 5 4 3 4 4 5 8 8 8 10 10 10 10 10 10 9 6 10 11 11 10 7 10 9 9 9 11 15 11 10 5 8 9 10 8 10 5 14 23 3 9 24 13 12 7 21 23 15 22 31 59 -1 14
5 4 4 6 7 8 9 11 10 12 15 15 15 11 11 13 12 10 9 9 7 8 9 12 11 12 15 10 11 10 17 11 6 5 5 7 9 8 7 6 7 7 31 10 27 16 37 7 27 14 34 16 -1 21
11 11 10 10 11 12 13 13 16 5 4 3 -2 4 13 12 14 12 10 9 9 11 18 22 18 17 11 12 14 17 10 16 10 7 8 9 6 8 8 5 3 4 6 7 5 10 3 14 56 10 6 32 -7 25
8 9 9 10 11 14 12 5 -3 9 12 15 21 20 15 13 14 15 17 14 13 12 10 16 10 11 10 13 21 18 10 11 13 12 6 4 10 6 8 7 5 2 8 13 29 42 -18 3 20 30 8 2 21 0
6 8 9 8 7 7 7 6 12 7 0 17 10 12 15 14 10 11 14 11 16 20 19 15 16 16 19 21 17 14 14 21 8 9 16 13 8 9 9 7 8 1 9 -0 54 57 17 14 -2 17 -43 114 57 77
12 9 6 6 9 10 9 12 8 5 7 12 13 14 9 11 11 12 12 13 10 8 13 11 16 17 27 9 6 11 19 12 19 12 9 13 -1 5 10 10 8 6 11 6 7 14 18 62 18 70 18 11 22 10
10 12 11 9 9 8 8 7 7 8 14 12 16 8 10 13 12 10 8 6 12 8 13 23 9 11 25 20 20 8 24 12 7 20 13 10 9 11 7 9 8 9 8 5 5 9 10 -8 28 -66 28 -4 14 9
8 7 11 11 8 11 9 8 6 9 15 17 11 8 13 13 12 10 17 10 6 5 11 14 11 20 22 28 60 45 39 36 21 14 19 9 10 11 10 9 11 7 9 9 10 7 9 5 13 21 24 20 -2 3
7 12 8 10 12 8 8 5 8 13 12 16 7 10 12 10 9 9 14 11 9 4 8 9 20 15 10 30 35 78 -61 91 -9 18 17 12 10 13 9 7 10 11 7 8 7 7 5 5 4 20 13 16 16 -0
6 5 12 10 13 9 7 8 6 12 16 10 6 11 13 10 6 15 17 8 13 18 2 6 8 14 9 30 32 -9 22 61 36 9 27 13 9 11 9 9 9 4 14 19 7 7 6 7 6 7 13 13 14 20
14 6 9 11 15 10 6 10 6 12 18 7 4 9 12 11 9 9 14 12 9 11 11 10 9 11 14 16 21 16 19 5 -8 72 19 1 15 18 14 11 8 11 6 8 15 11 10 10 9 6 4 11 14 15
6 12 8 11 16 11 5 9 8 11 20 6 4 9 11 9 8 9 12 9 10 9 10 11 6 12 12 17 6 9 35 9 11 6 5 27 14 10 9 14 13 15 4 11 10 27 10 8 9 10 7 5 9 21
3 13 7 14 15 11 4 9 10 10 19 7 4 9 9 10 11 11 13 16 14 19 14 11 11 21 15 14 13 10 7 28 21 11 12 12 13 12 0 18 2 30 2 27 7 46 9 7 8 11 6 7 15 5
3 18 6 15 12 9 8 8 10 11 17 7 5 8 9 9 11 11 12 13 13 3 6 16 8 8 13 19 8 16 13 5 25 15 7 13 19 16 11 18 13 14 19 44 14 18 13 10 10 10 8 7 6 11
6 22 9 13 13 6 4 5 11 13 14 8 5 9 7 8 12 8 14 17 21 12 12 8 17 9 19 13 6 10 13 13 13 12 6 13 4 9 13 14 46 20 10 16 8 11 9 10 8 8 4 7 10 9
20 12 9 14 8 7 13 13 10 13 15 8 6 8 8 8 8 11 10 14 7 7 12 6 12 4 4 -2 16 24 13 14 6 8 12 -7 51 14 9 6 9 14 23 24 16 12 13 13 13 9 4 10 27 -39
11 9 10 9 10 -1 14 10 12 13 13 9 8 8 10 10 8 3 20 8 6 9 13 9 8 6 23 -6 42 18 17 15 14 7 1 8 23 7 1 11 11 9 12 8 7 9 10 12 14 9 10 11 28 -26
13 12 8 5 11 5 12 10 13 14 9 10 9 10 12 10 8 14 -4 20 6 16 8 13 6 23 16 43 29 23 37 11 12 25 17 16 18 27 20 8 13 11 10 5 14 13 10 10 7 6 9 9 14 29
12 8 8 9 14 10 13 10 14 12 10 10 10 11 9 9 11 9 13 18 10 14 8 14 22 27 15 19 20 16 14 24 19 10 2 9 16 16 20 14 15 12 17 18 12 15 16 19 6 6 17 11 9 37
4 -10 11 15 8 11 9 9 14 11 10 10 11 12 10 8 9 13 35 3 16 10 7 9 -3 22 26 15 17 18 20 20 16 13 15 16 15 13 15 17 20 16 17 15 13 13 11 12 16 13 10 12 22 27
3 14 16 7 7 12 7 8 15 12 12 9 12 11 8 1 38 -23 14 15 16 8 9 11 2 18 33 5 4 16 15 15 19 20 23 27 28 24 20 25 14 12 10 10 14 18 19 20 11 12 18 17 17 20
18 13 4 7 7 12 6 9 14 15 12 10 12 12 10 11 10 9 17 19 4 6 7 13 14 6 35 10 12 27 22 21 11 8 21 16 17 20 17 8 1 -0 6 12 19 14 11 10 10 14 15 22 15 13
11 2 6 10 10 11 7 10 15 16 13 10 12 12 10 13 11 10 11 24 7 4 7 17 2 8 31 22 3 3 -4 19 21 29 25 22 16 16 10 12 20 13 13 22 15 7 6 16 19 22 23 17 -3 21
1 8 12 9 10 9 7 9 14 16 12 13 9 17 8 14 6 11 19 -2 11 6 9 7 3 4 44 27 26 19 26 34 30 19 8 13 43 31 39 24 24 39 35 32 29 25 13 8 28 29 55 50 44 -21
11 5 8 11 10 8 9 10 18 17 15 11 14 11 11 9 12 6 31 35 15 7 12 11 9 11 -3 -13 -6 6 7 11 28 30 33 16 20 -5 33 -7 1 66 57 36 36 27 52 21 15 19 -10 -0 5 20
3 6 9 10 9 9 10 13 14 16 16 11 15 6 10 12 17 18 17 19 8 8 9 11 10 12 -5 -10 35 30 7 9 8 7 3 4 21 37 40 24 -10 0 -2 4 1 -2 9 16 -7 -13 -12 2 35 19
4 8 9 10 8 8 11 23 34 -32 17 14 12 11 11 14 11 9 16 12 17 12 9 8 9 14 8 9 31 12 10 12 12 11 9 10 6 6 5 0 5 26 -3 26 -9 4 11 12 11 13 13 9 6 4
11 12 11 8 7 11 16 19 20 18 13 10 10 0 9 9 7 16 12 30 16 8 10 11 10 12 9 10 7 3 10 8 11 15 11 7 8 9 8 8 7 6 6 6 7 7 7 7 7 7 7 8 11 11
9 9 7 7 11 13 15 18 17 13 13 13 11 9 8 13 24 11 40 -3 28 11 3 6 11 9 10 11 11 10 8 8 13 7 8 3 3 10 11 7 6 10 12 12 12 13 13 13 13 13 12 13 14 14
9 7 7 10 12 15 17 17 14 11 5 9 3 9 9 10 9 14 11 19 17 11 8 10 11 5 8 13 10 9 12 12 14 9 8 8 9 11 8 4 6 6 10 13 12 11 11 11 12 11 11 11 10 10
10 11 12 12 13 17 17 14 20 10 11 -1 10 13 10 14 13 7 15 33 16 10 6 7 11 6 5 14 15 11 12 8 6 8 7 14 21 9 6 7 12 14 14 15 13 11 8 8 8 8 7 9 10 14
12 13 12 16 16 20 16 5 7 1 12 9 16 9 14 14 17 8 15 14 25 21 16 17 13 11 8 14 13 8 9 8 5 6 11 18 6 5 4 12 14 15 13 10 9 11 11 10 13 16 18 21 21 18
Height
5801 5801 5800 5799 5798 5797 5796 5795 5793 5791 5789 5786 5784 5781 5779 5777 5776 5774 5772 5770 5769 5770 5767 5767 5766 5766 5765 5765 5766 5767 5766 5767 5765 5764 5765 5765 5764 5763 5763 5765 5764 5766 5763 5763 5762 5762 5766 5774 5777 5774 5772 5777 5786 5795
5798 5797 5796 5796 5794 5793 5791 5790 5788 5786 5783 5781 5778 5776 5774 5771 5769 5768 5765 5764 5763 5762 5763 5759 5759 5757 5757 5756 5756 5757 5758 5758 5757 5756 5756 5756 5756 5758 5759 5759 5757 5757 5758 5760 5758 5757 5761 5763 5767 5765 5766 5768 5780 5789
5793 5793 5792 5791 5789 5788 5786 5784 5782 5779 5777 5774 5772 5770 5768 5765 5763 5761 5758 5756 5755 5754 5756 5753 5748 5750 5749 5748 5745 5749 5748 5748 5746 5746 5747 5749 5750 5752 5752 5752 5748 5751 5749 5749 5747 5755 5753 5756 5759 5755 5759 5765 5772 5777
5788 5787 5786 5785 5784 5783 5781 5779 5777 5775 5772 5769 5766 5764 5761 5758 5755 5753 5751 5748 5746 5744 5744 5744 5739 5740 5737 5736 5736 5737 5739 5737 5740 5738 5738 5741 5742 5742 5744 5742 5744 5745 5742 5738 5738 5741 5744 5751 5748 5744 5752 5760 5759 5759
5782 5781 5780 5779 5779 5777 5776 5774 5772 5769 5766 5763 5760 5757 5754 5752 5749 5747 5745 5741 5738 5736 5734 5735 5729 5725 5724 5723 5723 5722 5724 5726 5727 5729 5731 5734 5735 5733 5735 5735 5737 5737 5732 5732 5734 5736 5739 5737 5736 5734 5736 5743 5742 5739
5777 5776 5775 5774 5773 5772 5770 5769 5766 5764 5760 5757 5754 5751 5748 5745 5743 5741 5739 5733 5730 5727 5724 5723 5718 5716 5713 5711 5710 5711 5711 5712 5714 5718 5723 5726 5728 5724 5726 5728 5731 5726 5725 5727 5731 5731 5733 5733 5729 5724 5721 5717 5730 5734
5770 5770 5769 5768 5767 5766 5764 5762 5760 5758 5755 5751 5748 5745 5743 5740 5737 5735 5732 5729 5725 5721 5718 5715 5709 5705 5702 5700 5698 5697 5697 5700 5702 5706 5711 5716 5719 5715 5717 5721 5726 5721 5719 5724 5729 5729 5727 5727 5730 5721 5723 5723 5730 5732
5763 5763 5762 5761 5761 5760 5758 5757 5755 5752 5749 5746 5743 5741 5738 5735 5732 5729 5726 5723 5719 5716 5711 5706 5702 5696 5691 5688 5685 5683 5684 5686 5690 5696 5700 5705 5708 5708 5710 5717 5718 5713 5713 5716 5724 5722 5726 5727 5731 5718 5726 5726 5733 5732
5757 5756 5756 5755 5754 5753 5752 5751 5749 5746 5743 5740 5738 5736 5733 5730 5727 5724 5721 5718 5714 5712 5705 5700 5694 5688 5683 5676 5668 5664 5667 5673 5680 5684 5690 5694 5698 5701 5707 5706 5710 5710 5705 5709 5713 5719 5722 5725 5724 5729 5727 5727 5730 5734
5750 5750 5749 5748 5748 5747 5746 5745 5743 5740 5738 5736 5734 5731 5727 5725 5722 5720 5716 5713 5709 5705 5701 5696 5689 5681 5675 5668 5663 5660 5662 5662 5669 5676 5680 5685 5691 5695 5695 5696 5697 5702 5705 5708 5710 5714 5717 5717 5721 5722 5724 5726 5728 5729
5742 5743 5742 5741 5741 5741 5740 5740 5738 5735 5733 5731 5730 5727 5724 5721 5718 5714 5710 5708 5705 5702 5698 5693 5685 5679 5672 5668 5666 5664 5661 5661 5663 5671 5674 5678 5684 5686 5688 5689 5691 5695 5700 5704 5704 5707 5710 5712 5714 5716 5717 5721 5723 5724
5734 5735 5735 5734 5734 5734 5734 5733 5732 5730 5728 5727 5725 5722 5719 5716 5713 5710 5706 5703 5700 5696 5692 5688 5684 5678 5673 5669 5665 5665 5664 5663 5665 5667 5672 5676 5679 5681 5684 5685 5688 5688 5690 5693 5693 5701 5705 5708 5710 5710 5711 5713 5718 5716
5726 5727 5727 5727 5727 5728 5728 5727 5726 5724 5723 5722 5721 5718 5715 5713 5709 5705 5702 5698 5694 5690 5687 5684 5681 5677 5673 5668 5666 5664 5663 5663 5665 5667 5670 5672 5675 5677 5678 5680 5681 5684 5687 5681 5687 5693 5699 5701 5702 5704 5704 5706 5710 5713
5718 5719 5720 5720 5721 5722 5723 5722 5720 5719 5717 5717 5716 5714 5711 5708 5705 5701 5698 5695 5691 5687 5684 5681 5677 5673 5670 5668 5666 5664 5663 5661 5662 5664 5665 5668 5670 5672 5673 5675 5676 5677 5679 5677 5681 5690 5692 5692 5695 5696 5697 5696 5704 5710
5710 5711 5713 5714 5714 5716 5717 5717 5715 5713 5712 5712 5711 5709 5707 5704 5700 5697 5693 5689 5686 5683 5680 5676 5674 5670 5667 5665 5663 5663 5661 5660 5659 5659 5660 5661 5662 5664 5667 5670 5672 5673 5673 5673 5674 5681 5683 5683 5687 5690 5690 5689 5697 5701
5702 5704 5705 5707 5709 5710 5711 5711 5710 5708 5707 5707 5705 5704 5702 5700 5696 5691 5689 5685 5681 5679 5677 5673 5669 5665 5663 5661 5659 5658 5657 5656 5657 5656 5655 5654 5655 5658 5659 5661 5664 5666 5668 5669 5672 5675 5676 5677 5681 5684 5680 5683 5687 5691
5695 5698 5699 5702 5703 5705 5705 5705 5704 5703 5702 5702 5702 5699 5697 5694 5690 5686 5685 5682 5677 5675 5673 5670 5666 5662 5658 5655 5652 5650 5650 5651 5650 5650 5650 5650 5648 5651 5652 5655 5658 5661 5663 5664 5667 5669 5670 5672 5673 5673 5671 5676 5676 5663
5688 5691 5693 5696 5698 5699 5700 5699 5699 5699 5697 5697 5696 5695 5693 5690 5687 5683 5681 5677 5673 5670 5669 5666 5662 5658 5652 5648 5645 5644 5643 5643 5643 5644 5643 5640 5644 5645 5646 5648 5651 5655 5656 5658 5660 5662 5664 5666 5666 5665 5666 5671 5674 5661
5683 5686 5689 5691 5693 5694 5695 5695 5695 5694 5693 5692 5692 5690 5689 5686 5683 5680 5676 5673 5670 5668 5666 5662 5656 5651 5645 5640 5637 5635 5635 5636 5637 5636 5637 5635 5635 5637 5639 5640 5642 5646 5649 5651 5653 5655 5656 5658 5659 5658 5659 5665 5670 5672
5678 5681 5684 5686 5688 5689 5690 5690 5689 5688 5688 5688 5686 5685 5683 5682 5679 5676 5674 5671 5669 5666 5663 5658 5652 5647 5641 5637 5634 5632 5631 5630 5630 5631 5631 5631 5631 5632 5634 5636 5638 5639 5641 5642 5645 5647 5649 5650 5651 5653 5653 5656 5662 5666
5674 5677 5679 5681 5683 5684 5685 5684 5684 5684 5683 5682 5681 5681 5679 5677 5674 5672 5670 5669 5666 5662 5660 5656 5651 5646 5640 5636 5632 5630 5629 5627 5627 5627 5626 5625 5625 5626 5627 5629 5632 5633 5635 5638 5639 5640 5641 5642 5643 5647 5650 5652 5654 5656
5669 5673 5675 5677 5679 5679 5680 5680 5679 5679 5679 5678 5677 5675 5675 5674 5665 5669 5668 5665 5662 5660 5657 5653 5650 5645 5640 5636 5632 5630 5628 5626 5624 5623 5621 5619 5619 5620 5622 5623 5625 5627 5629 5630 5632 5634 5635 5637 5639 5640 5642 5645 5648 5652
5665 5669 5671 5674 5675 5675 5676 5675 5674 5674 5674 5673 5673 5671 5670 5670 5668 5666 5663 5661 5659 5658 5655 5651 5648 5644 5640 5635 5632 5629 5627 5626 5624 5621 5620 5618 5618 5618 5618 5619 5623 5622 5622 5624 5625 5627 5629 5632 5634 5635 5636 5639 5642 5645
5663 5666 5668 5670 5670 5671 5671 5670 5670 5669 5670 5669 5668 5667 5666 5665 5663 5661 5657 5651 5655 5657 5653 5650 5646 5641 5638 5634 5632 5630 5627 5624 5622 5619 5618 5617 5617 5617 5615 5615 5616 5612 5615 5618 5621 5624 5625 5627 5627 5629 5632 5635 5637 5641
5661 5664 5666 5666 5666 5667 5667 5666 5665 5664 5664 5664 5664 5663 5662 5660 5659 5657 5654 5654 5654 5654 5651 5649 5647 5644 5640 5637 5634 5632 5628 5625 5623 5621 5619 5618 5616 5614 5612 5609 5609 5609 5611 5616 5618 5618 5620 5621 5621 5626 5627 5631 5634 5638
5657 5660 5661 5662 5663 5663 5663 5662 5662 5661 5661 5660 5660 5660 5658 5657 5655 5654 5652 5651 5651 5651 5650 5650 5648 5647 5645 5640 5639 5639 5636 5631 5629 5625 5623 5621 5620 5619 5618 5616 5614 5614 5614 5614 5616 5618 5617 5619 5623 5626 5628 5632 5634 5636
5655 5656 5657 5658 5659 5659 5659 5658 5657 5657 5657 5657 5657 5657 5656 5654 5653 5652 5650 5649 5650 5650 5650 5650 5649 5649 5647 5644 5642 5641 5639 5637 5634 5632 5630 5627 5625 5624 5623 5622 5622 5622 5622 5622 5623 5623 5625 5628 5630 5631 5633 5636 5639 5640
5651 5653 5654 5655 5655 5655 5655 5655 5653 5652 5654 5655 5655 5654 5653 5652 5651 5651 5649 5648 5649 5649 5649 5650 5649 5648 5647 5647 5646 5644 5644 5643 5642 5639 5636 5635 5634 5633 5631 5630 5627 5627 5626 5627 5626 5627 5629 5630 5632 5634 5635 5636 5637 5638
5648 5650 5651 5652 5652 5652 5651 5651 5651 5651 5651 5650 5651 5651 5650 5649 5648 5649 5647 5639 5645 5649 5647 5647 5649 5648 5647 5648 5647 5646 5646 5644 5643 5642 5641 5640 5640 5639 5638 5637 5636 5636 5635 5635 5634 5634 5633 5633 5633 5632 5633 5633 5636 5636
5646 5647 5648 5648 5648 5647 5647 5647 5647 5648 5648 5648 5648 5650 5648 5648 5647 5646 5646 5646 5645 5645 5645 5646 5648 5648 5648 5648 5647 5647 5647 5646 5645 5644 5643 5643 5643 5642 5641 5640 5639 5638 5638 5637 5637 5636 5636 5636 5636 5636 5635 5633 5634 5634
5643 5644 5645 5644 5644 5643 5643 5643 5643 5644 5646 5646 5646 5647 5648 5647 5646 5645 5644 5644 5644 5644 5645 5645 5647 5648 5648 5649 5648 5648 5648 5647 5647 5646 5645 5645 5645 5645 5644 5642 5641 5640 5639 5637 5636 5636 5635 5634 5634 5633 5633 5633 5632 5631
5641 5640 5641 5640 5640 5641 5640 5641 5641 5641 5643 5642 5644 5644 5646 5646 5643 5642 5641 5641 5642 5644 5645 5645 5646 5645 5647 5649 5649 5648 5648 5647 5647 5647 5647 5646 5645 5644 5643 5643 5641 5639 5637 5637 5636 5635 5634 5633 5632 5631 5629 5628 5627 5626
5637 5637 5637 5637 5637 5637 5638 5639 5639 5640 5640 5641 5642 5643 5644 5645 5643 5641 5640 5641 5641 5642 5643 5644 5644 5645 5646 5646 5646 5647 5647 5648 5647 5647 5646 5645 5644 5643 5642 5640 5638 5637 5637 5636 5635 5634 5633 5631 5630 5628 5626 5625 5624 5622